Regional Weather Roundup
Issued by NWS Charleston, SC

Current Version | Previous Version | Graphics & Text | Print | Product List | Glossary On
Versions: 1 2 3 4 5 6 7 8 9 10 11 12 13 14 15 16 17 18 19 20 21 22 23 24 25 26 27 28 29 30 31 32 33 34 35 36 37 38 39 40 41 42 43 44 45 46 47 48 49 50
796
ASUS42 KCHS 110212
RWRCHS

REGIONAL WEATHER ROUNDUP
NATIONAL WEATHER SERVICE CHARLESTON SC
900 PM EST SAT DEC 10 2016

NOTE: "FAIR" INDICATES FEW OR NO CLOUDS BELOW 12,000 FEET WITH NO
SIGNIFICANT WEATHER AND/OR OBSTRUCTIONS TO VISIBILITY.

NOT ALL STATIONS ARE QUALITY CONTROLLED. USE DATA WITH CAUTION...
ESPECIALLY DEWPOINT OBSERVATIONS.

SCZ027-030-031-034>040-042>050-110300-
...SOUTHEAST SOUTH CAROLINA...

CITY           SKY/WX    TMP DP  RH WIND       PRES   REMARKS
N CHARLESTON   CLEAR     37  26  64 N7        30.50R WCI  32
WATERFRONT PRK   N/A     45  31  58 NE10      30.48R
MOUNT PLEASANT NOT AVBL
JOHNS ISLAND   FAIR      41  28  60 N6        30.49S
PINOPOLIS        N/A     45  28  53 E9        30.43R
MONCKS CORNER  FAIR      36  23  60 CALM      30.51S
SUMMERVILLE    FAIR      34  32  93 CALM      30.52R
BEAUFORT MCAS  CLEAR     39  28  64 NE7       30.48S WCI  34
BEAUFORT ARPT  FAIR      41  32  70 NE7       30.48R
HILTON HEAD IS CLEAR     45  32  61 N7        30.47F
WALTERBORO     CLEAR     34  30  86 N3        30.51S
ALLENDALE      FAIR      39  27  60 CALM      30.49S

...SOUTHERN MIDLANDS AND PEE DEE...

CITY           SKY/WX    TMP DP  RH WIND       PRES   REMARKS
GEORGETOWN     NOT AVBL
KINGSTREE      FAIR      30  27  86 CALM      30.52R
ORANGEBURG     CLEAR     32  26  78 NE3       30.51R
BARNWELL       NOT AVBL
AIKEN          FAIR      30  25  80 CALM      30.51F
MANNING        NOT AVBL
COLUMBIA       CLEAR     33  25  72 CALM      30.50S
SUMTER         CLEAR     30  22  72 CALM      30.49S
FLORENCE       CLEAR     31  24  75 CALM      30.52S
MYRTLE BEACH   CLEAR     32  23  69 CALM      30.53R
N MYRTLE BEACH CLEAR     30  26  85 CALM      30.51S

$$

GAZ063-065-086>088-099>101-113>116-118-119-134>141-150-110300-
...SOUTHEAST GEORGIA...

CITY           SKY/WX    TMP DP  RH WIND       PRES   REMARKS
SAVANNAH ARPT  CLEAR     37  30  75 N6        30.47S WCI  32
HUNTER AAF     CLEAR     43  34  68 NE3       30.43F
FORT STEWART   CLEAR     36  30  80 CALM      30.43F
STATESBORO     CLEAR     35  30  83 CALM      30.48R
SYLVANIA       CLEAR    N/A N/A N/A E5        30.49R
CLAXTON        FAIR      34  34 100 CALM      30.47R

...CSRA...CENTRAL AND FAR SOUTHEAST GEORGIA...

CITY           SKY/WX    TMP DP  RH WIND       PRES   REMARKS
THOMSON        CLEAR     32  30  90 CALM      30.50F
AUGUSTA-BUSH   CLEAR     31  25  78 CALM      30.49S
AUGUSTA-DANIEL CLEAR     41  21  44 E5        30.48F
SWAINSBORO     FAIR      41  23  48 E5        30.47S
VIDALIA        CLEAR     39  30  70 NE6       30.46R WCI  35
EASTMAN        FAIR      41  14  33 E5        30.47F
HAZLEHURST     FAIR      43  25  49 NE3       30.43S
ALMA           CLEAR     36  31  82 CALM      30.43F
WAYCROSS       CLEAR     44  40  86 CALM      30.44R
JESUP          FAIR      41  37  87 NE3       30.44F
BAXLEY         FAIR      37  32  81 NE3       30.43F
BRUNSWICK      CLEAR     48  43  81 N7        30.43F
SAINT SIMONS   CLEAR     51  43  74 NE9       30.41F

$$

SCZ027-028-034-036>038-045-046-048>050-GAZ119-141-110300-
...LAKE AND SUPPLEMENTAL COASTAL OBSERVATIONS...

STATION/POSITION TIME  TEMP    WIND        PRES    WAVE   SWELL
                       AIR SEA DIR/SP/G            HT/PER HT/PER/DIR
                 (UTC) (F)     (DEG/KT/KT) (MB)    (FT/S) (FT/S/D)
WINYAH BAY       NOT AVBL
LAKE MURRAY      0120   39      CALM  /  1 1031.8F
ACE BASIN NERRS  0045   41      20/  1     1032.0
FORT PULASKI     0148   49 59   40/  7/ 10 1031.4F
SAPELO ISLAND    0100   46      30/  6     1031.0

$$

ANZ835-935-AMZ111-154-330-350-352-354-370-450-454-472-110300-
...C-MAN AND BUOY OBSERVATIONS...

STATION/POSITION TIME  TEMP    WIND        PRES    WAVE   SWELL
                       AIR SEA DIR/SP/G            HT/PER HT/PER/DIR
                 (UTC) (F)     (DEG/KT/KT) (MB)    (FT/S) (FT/S/D)
BUOY 41004       0150   52 73   40/ 12/ 17 1031.4F   3/ 5   2/ 80/ 6
BUOY 41008       0150   56 62   50/ 17/ 19 1029.6F   4/ 5   2/ 70/11
FOLLY BEACH CMAN 0100   47      20/ 12/ 14 1032.5F
CAPERS NEARSHORE 0108   48 59   50/ 10/ 14 1032.1S
FRIPP NEARSHORE  0108   51 60   60/ 12/ 16 1031.4R


STATION/POSITION TIME  TEMP    WIND        PRES    WAVE   SWELL
                       AIR SEA DIR/SP/G            HT/PER HT/PER/DIR
                 (UTC) (F)     (DEG/KT/KT) (MB)    (FT/S) (FT/S/D)
5E ST. MARYS GA  0200      63                N/A     5/ 6
FRYING PAN BUOY  0140   48 72   10/ 10/ 14 1032.8S
BUOY 41025       0150   44 77  350/ 12/ 17 1033.0R   4/ 8   3/ 60/ 8
CAPE LOOKOUT NC  0100   41     340/ 11/ 12 1033.0R
BUOY 41002       0150   60 73  360/  8/ 12 1030.3R   4/ 8   3/ 40/ 8
BUOY 41010       NOT AVBL
ST AUGUSTINE FL  0200   62 64   10/ 19/ 20 1028.5F


$$




USA.gov is the U.S. government's official web portal to all federal, state and local government web resources and services.